GFSSE_con_3kmhel_000.txt.gz
Helicity
-23 -31 35 50 69 69 81 94 113 123 96 76 61 68 71 68 67 71 69 48 38 52 58 55 53 47 44 45 39 22 8 -3 25 24 24 36 40 43 43 36 30 9 26
7 -23 51 62 48 73 89 104 114 94 71 75 68 61 52 48 44 42 34 30 33 44 43 38 25 12 9 13 14 12 11 5 15 24 29 14 14 33 27 32 24 25 30
1 13 52 54 57 89 93 99 96 85 77 64 61 45 34 34 34 27 24 24 29 34 32 23 22 24 24 25 29 24 26 22 22 14 9 -17 -14 -16 4 40 26 16 22
31 48 40 41 75 84 87 90 89 78 69 61 48 28 25 20 17 16 13 11 9 13 20 26 32 31 33 32 33 32 27 22 17 22 -4 -6 -5 22 14 26 29 29 45
46 8 22 58 70 76 83 86 76 67 64 48 26 20 14 4 5 3 2 0 5 9 14 23 30 33 33 32 28 27 32 16 16 5 1 1 8 21 43 22 33 36 45
-5 2 36 58 63 78 76 72 70 61 52 34 19 13 5 0 -2 -7 -13 -9 2 4 6 11 16 20 20 20 16 17 20 16 15 5 12 16 13 15 38 40 16 25 47
-13 23 30 54 62 63 65 60 59 54 35 14 10 3 -3 -6 -17 -25 -18 -12 -9 -6 -6 -9 -4 -1 -4 -5 -7 -4 5 9 1 7 19 29 40 36 36 59 42 25 32
19 11 20 31 46 49 46 54 42 26 9 11 0 -7 -13 -27 -32 -28 -22 -16 -12 -18 -24 -24 -24 -18 -11 -9 -11 -12 -10 -2 4 8 23 26 29 46 51 49 45 44 36
0 6 6 20 37 44 38 28 18 14 0 -4 -15 -23 -34 -37 -35 -31 -21 -18 -21 -31 -43 -42 -37 -31 -20 -17 -14 -8 -5 -1 -1 1 10 22 26 35 46 74 66 68 63
-17 -4 11 16 13 16 5 10 10 1 -16 -24 -30 -32 -28 -20 -23 -26 -17 -18 -24 -29 -36 -41 -40 -38 -36 -31 -15 2 8 9 9 8 9 12 31 40 43 49 66 62 63
-17 -6 -2 6 0 -17 -22 -15 -11 -12 -19 -21 -22 -16 -12 -15 -11 -4 -6 -13 -24 -19 -20 -44 -50 -46 -48 -52 -44 -21 2 19 22 24 29 11 14 21 37 52 57 55 57
-5 -20 -11 -14 -23 -32 -32 -32 -37 -33 -29 -26 -18 -14 -12 1 10 15 14 -6 -11 -5 -10 -33 -34 -32 -23 -7 6 9 23 11 14 21 36 28 35 40 37 43 54 57 61
-4 -16 -39 -27 -30 -32 -38 -46 -50 -35 -27 -22 -24 -14 -3 8 26 32 37 28 18 25 26 17 21 24 20 20 35 47 42 46 57 46 19 15 43 55 53 44 39 43 56
7 -10 -18 -18 -23 -33 -32 -25 -23 -21 -13 -12 -20 14 35 43 54 60 62 46 37 48 49 45 46 45 56 79 80 59 52 67 73 79 62 34 31 34 54 62 56 48 42
17 -14 -29 -12 -13 -1 10 5 -8 -5 7 4 13 49 71 67 73 74 72 83 100 95 91 79 83 86 112 124 120 95 95 85 113 119 109 84 72 48 36 35 50 82 92
19 22 18 25 59 48 20 3 -2 -10 11 19 47 74 82 78 91 98 136 173 153 136 109 97 97 128 160 158 170 171 158 146 127 109 111 111 137 149 125 100 87 69 64
52 94 110 155 150 122 78 37 7 -21 -10 47 71 92 101 144 175 200 216 187 155 147 135 139 156 173 202 227 214 219 201 186 145 92 60 83 123 182 201 190 170 131 103
136 202 243 296 291 289 116 55 63 -93 101 88 176 174 185 195 170 171 163 157 137 147 166 163 190 197 243 257 249 223 198 137 107 87 88 90 77 96 140 216 212 219 188
176 281 369 423 397 301 176 164 160 150 178 159 154 129 145 128 118 125 111 116 76 138 176 150 168 183 200 205 192 191 163 124 75 71 79 97 138 168 130 174 220 225 223
339 397 456 416 323 215 158 160 139 153 137 124 85 99 132 146 160 125 113 151 138 129 169 155 163 148 126 160 144 146 104 85 105 86 102 138 154 172 167 154 125 149 199
299 311 234 229 130 58 62 87 119 110 96 90 94 115 141 138 165 168 153 148 158 170 160 166 150 186 156 159 128 113 85 137 197 193 178 140 129 124 128 126 113 94 108
63 39 16 14 -43 -2 44 55 59 73 69 115 120 156 183 157 156 151 161 172 170 151 206 192 170 143 105 81 95 77 164 185 229 209 168 129 116 72 99 117 98 61 40
-11 -12 25 31 35 62 84 91 92 82 88 102 122 142 171 197 198 211 246 218 212 163 165 99 114 145 164 99 176 174 177 193 185 168 181 150 117 55 38 20 61 66 76
77 66 61 78 81 68 58 92 89 85 94 89 95 143 183 201 195 192 213 179 141 154 177 152 160 111 96 189 151 162 154 154 156 146 177 122 64 104 50 19 50 49 80
94 58 52 66 79 84 104 128 132 145 147 156 181 177 160 157 176 193 184 183 201 125 183 202 152 136 106 109 110 138 146 145 147 184 136 49 72 43 44 55 42 53 93
99 104 103 131 133 126 159 185 199 212 197 214 198 194 242 226 194 171 156 180 236 236 198 129 157 157 89 97 123 146 108 71 59 26 53 64 52 61 49 31 70 89 71

GFSSE_con_3kmhel_003.txt.gz
Helicity
7 -15 18 27 39 65 87 92 96 96 94 93 78 63 51 45 47 47 34 30 35 45 52 46 43 36 30 22 31 30 30 26 29 42 63 63 59 39 34 39 25 43 29
17 -14 6 30 48 91 89 87 103 99 100 82 57 43 37 41 29 20 18 15 20 28 32 32 29 32 30 34 40 40 39 33 32 18 28 27 56 61 32 45 44 42 25
26 1 -4 35 65 82 78 100 109 94 80 50 39 37 43 35 18 9 7 3 9 17 22 23 26 23 25 30 34 37 34 31 29 21 10 7 17 42 53 46 50 33 24
43 10 11 25 59 69 88 91 80 67 45 36 41 39 25 9 4 0 -7 -7 4 8 14 18 18 16 16 15 16 20 20 24 23 20 15 13 35 33 33 48 63 47 40
36 14 25 33 51 75 75 60 53 44 35 45 37 17 4 3 -1 -8 -13 -9 0 3 4 5 5 6 5 3 3 4 7 6 14 20 32 19 25 51 52 45 48 45 49
14 10 29 30 57 58 53 47 48 32 36 31 12 1 1 -2 -10 -18 -12 -12 -5 -4 -5 -3 -6 -7 -10 -9 -9 -8 -10 -14 -17 16 31 37 36 53 62 65 62 57 65
1 3 17 36 38 38 44 42 36 31 24 6 -2 -4 -5 -13 -17 -21 -18 -12 -8 -5 -11 -16 -22 -25 -23 -21 -21 -16 -10 -13 -15 -2 21 40 42 55 60 67 57 61 73
13 -5 3 19 29 41 42 40 30 13 1 -3 -6 -9 -12 -17 -18 -11 -16 -13 -16 -8 -9 -13 -23 -32 -38 -36 -27 -22 -12 -9 -9 -6 1 14 31 49 72 75 68 77 85
-5 -5 3 15 27 43 32 16 -2 -10 -10 -11 -11 -14 -10 -9 -8 -12 -8 -13 -15 -15 -15 -33 -45 -44 -36 -34 -33 -26 -17 -4 -6 -4 0 8 22 25 43 81 90 76 76
-15 -4 2 12 16 7 -3 -9 -15 -21 -19 -23 -20 -14 -2 -3 -5 0 -8 -15 -16 -11 -28 -52 -56 -44 -40 -41 -56 -44 -21 -18 12 12 13 26 33 33 33 44 73 82 69
-14 4 7 1 -15 -29 -35 -28 -29 -33 -28 -35 -24 -13 -3 -3 6 6 0 -14 -27 -31 -28 -30 -31 -37 -35 -34 -36 -18 -6 20 9 10 24 43 40 48 47 43 47 68 67
-7 -3 -12 -25 -33 -40 -41 -45 -52 -41 -35 -31 -21 -8 -6 -1 8 7 5 -9 -28 -20 -7 3 14 6 8 14 16 15 25 23 27 26 27 22 29 39 50 56 45 48 74
-10 -38 -46 -35 -25 -28 -29 -32 -20 -14 -20 -15 -11 -1 6 14 7 16 26 28 32 30 44 48 60 56 56 51 43 46 35 30 31 35 45 47 49 46 38 39 41 40 43
-19 -29 -25 -13 -6 -6 2 7 6 10 0 -5 10 18 22 32 32 42 69 74 75 62 76 90 90 68 79 88 88 90 95 85 77 63 60 79 96 97 93 75 61 47 44
-6 -4 5 20 16 28 47 31 26 17 6 8 16 18 29 32 47 72 96 98 96 102 110 117 115 100 118 145 154 149 153 147 143 112 90 131 136 128 123 131 131 115 113
2 29 44 52 70 72 64 48 31 20 -22 23 42 52 58 26 81 113 113 123 120 118 138 120 123 136 154 158 178 188 204 210 189 151 118 104 154 173 181 174 171 172 174
41 79 99 122 121 140 115 76 86 42 8 -46 68 120 122 113 112 104 103 115 140 142 144 116 114 152 166 169 174 168 170 178 171 154 138 127 96 111 148 191 199 201 196
92 126 146 166 232 231 155 67 64 -31 -37 40 -25 24 48 43 60 82 135 145 151 132 108 121 141 140 144 154 159 154 155 164 127 112 134 121 93 74 61 112 137 175 204
153 201 270 303 274 181 60 61 -53 -7 43 35 37 33 76 86 109 127 153 147 138 151 168 156 162 159 169 165 155 155 172 164 145 140 151 137 140 146 152 165 153 121 164
233 288 287 192 188 178 100 58 64 60 55 72 93 115 113 140 150 153 159 153 154 167 167 159 159 148 144 127 126 132 109 116 147 207 205 181 196 209 214 213 194 181 137
152 177 180 163 131 85 51 -10 -1 42 83 121 143 157 148 145 167 155 170 188 189 192 182 176 152 157 159 160 123 156 126 132 195 225 232 231 240 215 193 185 162 149 131
75 77 59 55 41 24 -33 -13 34 73 102 120 128 158 179 196 214 210 200 187 181 171 179 174 160 157 142 136 124 97 113 156 192 209 252 246 230 184 179 160 130 90 71
-27 6 3 4 -22 -43 -7 58 106 130 132 127 152 173 183 187 192 188 176 168 161 139 164 180 185 190 184 162 175 157 189 232 209 152 217 177 171 148 114 112 86 61 38
1 19 26 36 68 83 74 91 133 143 158 175 184 178 212 225 196 165 141 122 122 164 211 195 197 225 197 216 138 152 160 183 213 185 179 149 102 102 96 77 100 106 97
43 124 136 155 141 141 161 162 175 201 207 199 184 196 183 168 142 118 118 138 162 212 226 213 200 186 164 196 179 166 155 142 134 151 136 111 73 51 27 28 2 7 60
178 147 200 211 223 233 235 263 252 239 209 176 170 161 153 142 143 152 142 162 202 246 246 246 189 143 146 155 123 103 120 139 107 74 93 65 36 42 46 25 29 26 41

GFSSE_con_3kmhel_006.txt.gz
Helicity
33 40 14 9 20 28 31 58 70 72 59 55 62 59 54 45 38 25 23 20 22 27 24 23 27 27 29 28 28 29 31 31 29 42 59 50 53 55 44 51 76 70 48
48 35 25 21 22 29 47 67 77 65 63 71 73 50 36 29 20 20 20 14 8 8 10 15 20 23 22 22 21 28 38 39 36 23 23 12 62 72 34 40 59 59 41
44 34 21 25 39 39 53 73 67 61 70 71 48 29 27 19 19 20 12 0 -3 -4 1 5 8 12 14 15 16 17 19 26 36 14 -12 41 78 114 90 44 53 51 41
34 41 32 26 36 48 54 60 53 66 67 57 44 36 22 16 13 9 4 -9 -9 -10 -7 -4 2 4 0 2 8 6 7 18 17 -5 32 48 53 80 93 85 56 30 7
33 39 67 30 36 40 46 46 54 61 60 61 41 24 14 8 10 -1 -5 -8 -13 -13 -14 -9 -1 0 -4 -5 -4 -4 -7 -11 -32 -10 44 52 47 55 42 58 54 37 48
26 40 52 35 32 26 37 40 56 62 64 45 25 15 10 8 0 0 -8 -16 -15 -12 -13 -5 -4 -4 -7 -10 -11 -12 -19 -30 -60 0 21 35 67 74 61 45 47 56 73
25 20 44 48 24 21 26 45 56 59 40 25 18 18 13 1 5 1 -3 -8 -5 -4 -5 -8 -9 -1 -3 -7 -8 -6 -6 -32 -17 4 3 15 43 59 69 71 69 73 68
42 17 17 14 20 23 34 47 49 38 20 17 19 9 3 8 8 5 6 1 -4 -1 -9 -8 -5 -1 0 -7 -13 -12 -13 -23 2 18 8 19 34 43 54 64 78 82 84
15 11 19 8 21 41 41 42 33 28 18 8 3 -3 4 9 6 11 6 -4 -4 -4 -6 -19 -18 -16 -15 -9 -17 -23 -26 -28 -15 19 14 51 45 37 45 45 56 68 71
-27 7 2 8 18 17 15 27 26 19 2 -8 -9 0 5 4 8 16 6 5 -3 -5 2 -10 -16 -10 -7 -13 -5 -8 -31 -48 11 -4 16 57 39 45 45 47 51 52 46
-9 15 20 25 17 21 18 19 6 -3 -16 -21 -9 2 -2 5 10 9 27 6 10 12 3 1 -1 3 12 7 34 9 -51 12 -2 17 17 59 29 33 40 43 36 40 51
6 12 11 7 15 19 3 1 -4 -10 -16 -9 -2 1 4 14 18 7 8 19 22 19 10 22 27 15 21 51 52 23 28 8 -2 -2 54 67 56 46 40 39 41 33 29
-4 9 21 10 -1 -11 -9 -7 -4 -5 0 6 13 17 27 21 24 10 12 26 39 51 40 40 56 80 74 50 55 54 40 10 33 23 104 85 80 86 91 89 89 82 80
11 14 -8 -5 3 7 7 20 18 19 15 24 39 54 67 73 59 21 21 37 35 58 56 58 77 90 85 72 75 75 76 59 73 51 110 123 117 129 137 139 132 121 129
18 11 15 21 25 32 38 32 27 29 21 34 71 100 104 127 126 61 27 50 58 64 69 76 98 95 99 101 105 96 104 100 100 100 111 196 152 138 143 151 171 162 152
12 5 22 35 50 81 99 78 60 33 -4 36 94 103 152 154 160 -1 32 62 72 82 100 122 123 114 114 97 103 94 95 115 132 134 133 182 184 160 141 141 131 149 167
18 34 53 89 113 127 128 106 60 -8 -11 32 66 142 98 92 97 34 40 62 99 131 121 118 96 82 91 98 78 77 100 126 147 143 122 156 171 183 150 127 111 113 137
52 61 84 97 126 140 154 88 50 44 -8 -129 -15 41 45 61 33 26 86 135 148 142 135 110 101 94 92 80 83 87 106 109 131 98 98 142 171 143 151 181 129 109 120
61 80 106 110 97 95 92 80 43 54 23 42 48 51 62 86 103 122 139 136 126 135 130 120 111 103 87 84 85 85 103 104 99 114 129 131 115 157 175 215 136 95 164
102 105 102 78 85 78 30 30 36 43 55 48 66 87 102 116 120 110 125 125 122 122 118 154 135 143 100 107 111 87 115 115 123 134 188 131 121 173 124 164 186 195 229
105 101 81 75 66 28 36 47 27 25 49 62 98 106 100 111 121 129 131 124 124 145 163 147 144 132 145 203 127 139 85 68 132 101 122 129 108 147 174 176 176 228 186
68 50 42 55 41 38 41 40 15 27 70 113 119 122 131 140 162 157 156 150 166 144 143 150 140 134 135 178 108 100 123 132 109 248 225 154 153 182 155 172 200 157 146
41 37 54 78 64 60 36 26 40 85 103 118 143 164 186 174 171 151 137 134 131 121 132 167 159 140 148 141 189 140 181 219 227 152 166 161 182 147 125 111 82 106 117
60 79 122 125 105 73 68 115 136 119 144 138 150 167 151 144 131 124 122 123 124 126 137 149 161 153 172 200 187 181 163 159 202 218 184 173 163 145 129 132 142 124 118
101 133 132 156 155 153 157 138 148 137 129 135 153 141 118 111 105 106 108 118 122 140 166 172 185 204 192 200 211 185 178 163 144 148 161 125 116 94 91 79 71 49 59
130 136 137 178 195 186 172 179 162 143 140 172 174 135 125 110 97 90 102 113 128 157 187 206 215 203 179 144 87 144 135 146 130 129 109 91 77 66 77 60 59 44 32

GFSSE_con_3kmhel_009.txt.gz
Helicity
87 77 72 40 39 41 30 50 59 47 52 52 56 55 47 39 35 29 28 23 17 15 13 17 20 22 25 27 32 31 31 26 13 2 -3 13 47 54 65 77 99 78 55
84 68 62 38 44 43 30 34 37 49 58 56 65 62 48 30 21 24 18 13 7 8 8 10 14 17 18 17 18 19 20 16 -1 -32 -37 16 63 66 55 59 68 61 47
66 63 34 27 48 44 21 28 52 66 65 65 69 62 40 23 17 19 13 3 -2 -1 0 2 5 7 8 6 0 -3 -7 -12 -21 -21 -32 -21 143 70 51 31 34 33 38
59 43 34 54 66 33 19 38 55 62 73 66 70 56 34 23 20 16 7 -4 -7 -9 -7 -1 8 16 13 11 4 -2 -14 -51 -46 -22 22 27 64 67 61 45 37 38 33
38 12 59 68 55 18 25 46 55 68 83 75 63 41 31 23 17 14 4 -5 -3 -6 -4 5 8 9 9 7 10 9 -4 -48 -51 -42 33 39 112 60 57 75 53 54 81
56 78 92 56 29 22 30 51 65 89 96 78 55 39 30 23 17 8 7 8 9 9 10 7 2 0 0 -4 -5 -2 -4 1 32 13 30 54 45 34 50 52 59 62 69
137 93 68 45 32 45 45 56 83 107 94 58 51 35 26 17 10 14 14 18 16 9 2 1 -3 4 4 0 -3 4 3 -14 -19 26 19 96 30 33 37 46 60 68 68
78 28 49 12 11 54 46 86 95 93 69 49 34 24 22 17 14 18 16 14 12 15 8 -3 3 10 12 5 -4 -7 -21 -19 9 17 -5 69 27 29 31 29 33 50 61
-25 27 27 25 29 51 58 82 92 60 47 37 24 22 13 13 13 15 11 17 23 31 19 7 1 1 6 -3 1 -14 -38 -37 -11 -5 -20 119 34 34 35 24 22 27 38
-13 -9 20 31 22 29 63 78 53 44 29 21 14 7 -2 -5 -2 6 12 28 29 29 14 10 2 -5 -11 -11 12 -11 -19 6 -10 -8 62 53 61 38 29 37 31 22 24
44 27 35 21 35 34 36 17 22 22 9 -4 -5 -1 2 -9 6 19 34 29 31 25 20 19 14 1 -17 9 44 3 11 32 -15 17 71 59 70 49 38 39 44 38 29
54 53 49 57 62 16 13 7 26 21 -1 1 8 13 6 18 26 9 21 30 30 28 23 19 16 -1 15 55 64 45 62 40 6 12 90 88 70 57 60 68 76 75 86
59 74 52 39 22 -2 16 6 10 -1 -3 8 23 21 56 39 70 56 48 23 31 41 10 42 48 60 71 56 62 59 50 30 42 50 129 151 102 77 85 95 105 115 125
28 39 7 14 31 38 5 5 6 10 8 7 22 18 47 60 82 105 172 132 28 34 48 40 58 78 74 61 61 41 56 55 71 50 122 145 132 110 102 104 107 121 136
37 22 17 24 27 21 40 35 42 30 44 23 32 79 83 102 91 99 159 246 127 43 41 39 66 126 88 77 130 97 101 58 86 71 85 160 155 123 110 100 93 93 102
54 38 25 33 25 51 101 104 77 68 37 35 43 68 83 77 88 82 68 79 35 38 54 111 141 109 98 123 81 110 81 62 72 86 75 98 138 130 126 107 100 98 90
33 32 45 53 86 87 99 81 55 33 45 68 25 23 66 88 97 120 60 20 62 133 91 100 142 122 118 79 114 109 88 99 106 91 69 43 93 114 116 147 147 122 112
57 49 53 64 78 109 117 76 69 66 12 23 104 44 64 86 95 113 69 75 90 105 119 140 99 102 104 123 107 100 96 74 76 81 42 42 81 90 120 120 96 104 74
74 89 73 55 70 85 99 77 76 67 68 62 38 39 54 68 70 77 107 117 92 81 98 80 131 92 107 91 71 114 111 51 73 88 94 68 92 110 151 190 116 118 92
90 76 71 52 70 66 65 53 46 59 45 37 53 53 55 74 82 84 109 99 56 77 108 167 125 124 112 106 95 187 60 111 101 39 70 56 83 156 146 166 149 107 130
115 91 64 72 55 47 68 72 62 56 56 51 71 77 80 99 94 85 110 113 113 124 136 117 117 129 113 110 144 118 114 30 92 86 80 158 211 169 161 158 175 197 205
108 94 63 82 68 77 67 85 70 64 85 96 97 88 122 121 132 114 143 120 147 135 117 110 139 146 114 113 155 170 142 130 123 252 241 207 137 108 105 151 192 141 120
124 90 76 82 115 126 95 63 86 97 64 69 107 123 162 119 118 125 128 128 120 103 111 137 131 185 145 164 134 188 178 217 202 142 158 170 182 169 159 129 146 150 173
92 60 77 115 135 94 113 156 164 171 191 158 123 164 120 152 126 109 104 98 106 108 112 118 140 280 161 184 170 183 224 215 235 242 176 101 81 94 98 87 90 85 89
84 76 141 131 130 152 201 170 194 194 149 126 148 132 159 169 128 112 114 125 134 123 127 153 197 195 201 199 241 218 221 199 181 203 223 137 81 58 67 60 69 68 29
120 142 150 141 165 196 232 260 257 221 164 146 186 169 167 107 100 113 123 114 107 110 117 156 267 243 308 231 184 218 193 193 165 160 134 101 76 42 53 63 52 50 52

GFSSE_con_3kmhel_012.txt.gz
Helicity
169 125 86 85 62 42 38 46 58 61 65 65 69 64 57 34 25 21 27 29 25 18 17 13 9 8 7 6 5 2 -1 -10 -39 -44 -13 2 18 41 54 73 86 39 38
198 111 99 88 62 43 51 59 61 61 65 64 62 57 49 28 24 29 33 31 18 18 11 5 8 5 -2 -10 -15 -25 -36 -46 -57 -58 -6 9 29 14 37 57 53 30 35
135 116 94 75 57 50 59 54 56 63 63 61 61 57 34 26 35 47 38 26 12 5 5 7 11 14 13 9 5 -12 -46 -46 -19 17 -4 11 -6 30 56 53 54 43 35
138 93 87 79 51 58 47 41 40 64 66 70 72 53 35 38 42 42 29 11 6 9 10 12 11 7 5 3 2 -0 -25 -16 14 11 -30 49 26 61 70 60 56 67 48
95 115 90 70 51 48 61 49 74 78 81 85 75 48 42 42 41 32 13 11 16 20 20 17 10 4 -0 -6 -1 16 10 47 155 -41 53 13 23 25 48 60 61 64 76
160 113 68 46 37 50 55 76 87 89 96 99 63 41 39 38 29 20 17 25 32 33 34 23 13 6 -4 -6 -4 -1 18 61 78 23 82 49 3 18 27 36 45 54 62
212 203 152 78 68 108 52 86 86 97 96 74 46 36 37 32 24 22 27 37 48 42 27 19 18 1 -14 -20 -22 -26 22 65 120 10 70 26 -19 17 26 27 30 31 36
162 186 175 58 39 9 49 106 99 94 78 50 33 33 30 28 19 17 26 40 48 40 20 15 8 -4 -16 -30 -30 -19 -21 6 46 32 72 27 -4 14 27 29 27 27 23
237 139 120 -14 9 64 99 110 78 74 44 39 29 22 9 5 5 11 23 36 48 38 25 16 9 -1 -11 -23 -47 -50 -5 -16 -0 6 65 10 16 36 33 28 26 27 28
118 40 -54 71 20 32 49 50 49 47 40 21 5 -7 -15 -19 -11 1 24 50 49 44 35 26 14 -4 -13 -7 -27 -36 -6 -29 4 26 17 -17 27 57 45 37 36 27 20
22 -74 -18 -35 2 -15 -15 19 37 21 5 -0 -12 -7 -9 -8 -1 11 29 50 56 51 36 28 8 -7 21 36 42 37 41 29 17 53 48 45 59 58 66 56 53 51 62
-172 -11 40 19 -14 -33 11 -31 -10 -0 -20 -19 -6 13 -15 30 44 43 44 45 47 27 22 31 -4 11 40 58 48 47 52 38 29 77 68 88 90 93 80 86 85 89 107
49 42 32 30 -0 -18 -32 -69 -32 -11 7 4 -9 10 48 60 59 64 60 78 55 62 60 47 43 39 50 59 55 73 58 57 58 75 97 117 110 94 82 80 92 105 109
43 49 35 42 114 50 -31 -8 -18 -3 -5 -8 16 27 42 83 90 79 88 114 125 138 139 90 54 77 171 140 135 134 108 85 60 74 122 131 103 99 73 56 60 71 87
57 60 71 73 39 35 71 103 107 44 57 50 60 63 94 61 53 76 92 58 98 156 163 104 100 111 108 105 108 109 103 70 41 55 89 117 93 81 95 96 100 86 62
63 98 65 34 22 76 131 106 53 56 36 100 59 52 36 76 81 112 91 107 119 103 76 71 93 96 107 126 100 115 130 106 123 120 115 90 68 112 119 127 122 100 78
103 51 31 -6 52 112 73 53 62 37 62 40 52 115 111 132 81 85 95 71 71 70 61 48 67 95 101 91 110 118 103 148 184 85 97 76 109 133 146 144 162 147 112
74 37 10 74 90 109 106 65 71 51 121 77 109 91 82 67 57 69 74 73 69 92 99 88 66 146 115 109 92 66 103 152 81 79 79 97 74 67 89 96 96 115 116
98 70 77 80 121 90 75 143 90 74 56 55 44 53 33 53 56 59 66 79 70 91 119 145 164 128 88 86 99 122 143 148 135 84 66 88 62 87 126 92 191 256 184
136 89 115 118 109 61 63 101 55 49 48 66 88 59 89 48 76 77 114 97 45 77 157 171 140 122 115 148 127 123 146 159 76 100 171 238 246 211 191 174 181 209 321
217 136 114 124 74 25 88 65 55 70 104 107 82 68 91 93 99 71 128 153 170 191 183 160 147 170 174 164 156 154 173 174 160 139 213 236 256 257 202 137 146 158 183
221 137 104 105 53 18 126 187 147 188 169 117 50 51 105 112 142 181 174 150 157 156 137 145 159 157 191 217 188 166 173 189 166 259 169 134 134 120 134 210 191 156 134
240 233 134 133 39 150 232 168 188 158 98 82 108 130 157 137 132 137 155 159 151 127 140 141 143 156 237 245 189 223 226 281 282 200 184 166 187 177 163 126 135 132 105
278 232 134 92 232 180 150 232 243 281 357 269 264 221 180 218 197 184 184 175 144 157 168 163 174 202 238 271 265 284 291 331 347 304 157 211 189 216 159 98 93 108 109
235 138 170 315 215 169 272 249 307 326 374 330 272 202 152 166 196 176 168 140 128 139 147 157 174 302 336 347 343 343 323 271 261 262 251 199 152 99 68 60 73 87 75
142 252 314 301 222 247 348 422 455 428 435 346 253 230 153 169 168 165 154 124 130 144 166 220 307 351 353 325 265 296 328 311 233 221 209 152 107 84 69 37 48 62 68

GFSSE_con_3kmhel_015.txt.gz
Helicity
148 111 88 99 93 79 74 66 74 79 82 84 75 62 60 50 44 37 38 31 22 22 23 19 10 5 5 4 3 6 19 36 27 17 3 -4 6 10 34 59 43 30 37
122 95 90 109 95 86 77 72 75 74 76 71 65 64 57 49 53 44 35 26 18 23 21 13 6 3 -1 -9 -19 -12 9 18 12 -15 -1 24 16 19 31 40 51 40 37
166 49 88 117 101 81 79 78 74 69 65 64 62 62 50 55 46 33 22 15 18 21 15 7 2 -3 -3 -12 -25 -20 13 51 62 -44 -18 -32 -19 32 46 53 61 55 48
211 111 101 125 90 73 66 67 63 62 57 58 60 54 51 46 38 33 24 23 23 22 18 12 8 3 0 -2 2 26 79 144 77 4 -12 -2 -3 35 42 50 57 66 47
190 137 109 128 99 74 74 72 63 51 55 52 54 48 49 42 39 35 34 33 23 19 7 2 0 -3 -2 17 42 69 123 138 59 22 0 -13 -39 3 31 36 35 44 49
183 114 112 102 83 84 75 55 52 52 56 52 47 44 41 42 42 46 49 47 37 20 17 13 4 -4 -9 7 19 48 77 65 47 34 13 -10 -61 -9 18 27 27 30 34
294 182 164 118 99 96 85 44 26 58 49 49 45 50 41 42 44 48 52 44 32 28 26 20 14 -2 -11 -10 -1 8 35 87 15 55 19 -27 -46 -12 20 21 24 21 24
259 330 238 161 112 93 3 -14 41 42 55 42 39 34 29 30 26 34 41 46 42 38 33 30 19 8 -8 -20 -13 5 14 41 11 7 15 -11 -14 -3 22 31 28 24 21
267 211 175 108 84 -44 -54 12 35 59 33 11 18 13 8 4 11 26 36 52 61 49 51 38 18 15 20 -7 -18 25 27 21 11 4 -9 -25 5 19 31 38 35 35 28
176 200 381 97 8 -111 -5 19 41 29 3 -2 -8 -10 -8 8 17 23 38 55 54 52 45 30 30 45 54 43 -11 35 28 25 -5 44 8 -6 27 38 47 73 68 55 59
79 71 -64 -131 -39 -23 19 -12 -23 -13 -7 -12 -5 2 3 -8 -7 12 27 40 35 26 27 28 26 45 41 46 26 27 38 32 11 28 11 58 60 74 66 79 100 113 111
-60 -123 -70 -19 -44 -10 -31 -47 -36 -23 -35 -24 -17 -22 -16 -20 -29 16 36 45 48 43 25 22 76 54 76 58 48 49 37 49 34 7 9 54 89 93 60 52 81 116 143
-126 -60 -28 -15 -15 -53 -24 -24 -40 -36 -37 -20 7 -21 17 77 101 85 73 76 110 123 134 191 198 207 176 135 105 75 60 56 48 44 50 74 74 69 60 58 62 83 118
-130 -22 5 14 -19 -58 -63 -64 -45 -38 -21 14 71 77 93 83 83 81 70 96 133 146 178 200 185 173 130 125 103 101 104 86 55 51 35 64 59 60 85 89 74 75 74
50 52 28 11 -39 -10 -5 11 35 40 33 61 77 73 67 73 91 105 142 152 160 132 131 119 92 75 80 102 126 142 122 103 142 134 117 73 73 80 112 127 125 84 46
57 60 28 30 51 100 121 83 52 53 98 106 99 90 137 132 136 135 135 114 107 58 59 53 62 88 105 111 123 112 106 156 138 99 103 86 93 133 130 159 149 140 110
108 60 15 79 106 118 87 73 79 135 141 143 105 70 95 119 84 103 98 101 89 94 94 85 128 150 153 142 112 109 108 116 120 102 111 127 78 83 119 121 152 150 150
102 22 4 65 103 99 92 88 125 112 76 70 97 104 101 101 91 91 91 87 99 124 140 162 125 105 110 116 112 116 123 113 117 95 121 164 199 161 146 182 167 167 254
77 31 78 94 118 114 134 116 99 82 83 79 88 86 98 113 116 92 74 63 69 114 134 133 136 129 112 112 106 108 97 133 120 122 161 206 264 295 216 138 264 270 276
82 90 167 134 128 150 152 90 110 104 141 83 130 111 93 71 91 125 130 133 133 133 158 162 154 135 125 125 140 142 146 159 172 193 232 226 219 236 195 200 204 193 235
129 184 212 164 126 172 126 148 112 197 157 142 133 126 118 100 110 134 139 154 158 142 127 125 126 125 117 153 165 150 145 193 255 225 245 250 206 174 159 155 90 72 73
236 197 213 146 93 94 96 97 106 140 127 143 155 117 105 125 132 134 133 170 163 133 124 126 132 128 153 187 172 180 183 180 267 228 203 175 229 188 164 108 70 66 94
324 247 176 97 67 96 252 224 245 264 245 215 223 196 159 178 171 158 193 191 167 143 139 140 146 171 169 187 262 256 255 278 199 231 147 254 237 184 143 144 152 160 135
302 247 221 122 203 240 295 325 354 324 399 373 356 249 245 223 204 202 183 195 158 122 138 152 175 196 216 253 268 298 273 255 272 321 319 230 194 185 127 85 84 106 87
316 315 241 344 389 301 302 351 409 512 521 483 416 361 275 246 189 231 196 193 141 131 136 183 220 228 227 221 234 250 267 296 328 354 356 252 179 144 100 95 38 73 67
310 360 404 488 475 390 399 396 490 550 523 471 399 338 264 188 223 240 207 165 130 149 160 174 182 204 212 223 223 247 292 348 310 344 311 216 185 116 73 67 85 50 55

GFSSE_con_3kmhel_021.txt.gz
Helicity
135 98 115 134 143 156 140 118 114 111 116 101 101 113 121 104 87 62 51 48 43 43 41 39 50 45 26 6 -9 -14 -19 -26 -1 27 26 30 43 47 44 46 47 36 61
180 144 166 152 137 127 144 118 107 97 112 89 91 109 101 90 65 50 45 41 41 41 40 53 77 82 51 32 20 7 -11 -31 -4 17 9 16 26 33 44 55 56 55 69
184 145 156 165 166 177 177 164 92 89 94 77 94 83 72 65 52 35 39 44 50 53 64 65 87 99 105 92 70 47 12 -9 7 6 -6 -46 -34 25 31 35 39 55 68
168 150 146 162 183 187 153 142 125 75 63 66 70 58 65 53 42 38 37 38 37 35 38 49 97 118 117 96 60 36 26 16 8 -2 -32 -36 -41 14 29 35 40 49 58
159 152 156 182 195 172 125 126 85 65 46 61 47 54 52 50 33 31 29 32 33 52 57 60 84 104 106 82 36 16 18 15 5 -22 -40 -38 -41 6 24 32 31 44 59
238 165 154 185 162 138 106 87 66 43 35 56 29 38 36 44 23 27 44 53 56 60 67 80 83 91 79 80 53 23 32 37 28 -5 -17 -25 -31 20 25 37 42 49 49
185 144 136 135 105 96 91 75 38 12 19 25 24 37 40 35 39 59 56 47 53 53 41 41 43 53 83 96 80 33 52 55 11 13 17 5 -9 14 10 24 45 59 67
356 290 147 179 183 161 135 44 16 2 -9 -0 34 26 41 57 69 55 48 38 38 48 31 29 28 57 78 98 84 47 46 35 20 22 15 13 35 40 32 34 49 74 88
188 254 396 420 347 359 136 56 7 -42 -10 41 40 51 54 55 49 37 25 45 54 51 66 60 71 71 96 87 63 45 50 45 33 22 10 -8 42 60 59 61 72 80 91
263 198 177 376 387 320 87 86 56 36 47 51 46 14 26 39 36 71 78 72 82 124 112 103 96 124 149 139 104 77 50 55 30 20 16 18 54 64 65 76 88 94 107
171 38 -45 106 137 206 233 89 9 18 36 44 23 13 36 51 72 81 84 98 122 108 107 113 143 155 169 153 119 81 74 35 31 16 14 30 50 71 67 68 82 100 105
122 -10 -9 -127 -230 -286 -144 -38 -11 9 38 15 -31 -20 74 62 62 80 99 93 103 131 157 194 206 200 156 114 109 125 79 77 72 62 62 75 85 88 73 90 95 80 88
-20 -95 -209 -203 -135 -149 6 -7 -7 -29 -41 -35 22 31 22 40 63 87 101 110 138 143 156 180 185 171 161 132 130 105 97 106 95 88 84 106 109 88 86 86 79 80 95
-52 -97 -96 -80 -55 -30 -24 -13 -12 -20 28 6 -18 -6 28 61 88 101 133 134 157 154 190 175 155 153 173 192 176 157 152 126 108 109 120 126 100 93 94 102 102 95 109
-88 -69 -23 3 12 10 -6 -15 6 -30 -27 -44 -24 25 70 79 97 132 178 183 170 143 130 125 138 153 169 174 167 160 158 142 137 114 116 151 123 101 112 140 146 114 111
-25 -16 -11 -6 -13 -23 -22 -27 -37 -44 -28 22 57 69 95 145 159 176 155 143 134 112 109 128 139 154 168 150 149 157 152 139 126 119 121 121 161 170 174 200 204 180 160
-1 9 -22 -33 -44 -56 -47 -49 -23 1 32 85 91 125 174 156 147 147 135 122 103 107 124 128 138 143 139 112 129 137 136 135 142 153 144 142 147 241 311 269 240 267 242
-40 -42 -52 -69 -59 -49 -27 -21 42 67 92 106 140 161 138 135 140 154 136 117 105 117 119 113 109 129 129 119 99 107 101 124 141 131 123 113 140 161 222 245 223 198 187
-18 -25 -27 -33 -10 12 44 43 96 114 136 150 165 144 131 141 133 143 118 89 86 110 102 85 99 95 85 78 63 83 98 121 124 117 115 136 157 178 189 225 234 233 195
-0 15 33 30 74 118 145 134 151 146 163 150 161 138 143 143 146 135 107 110 85 99 81 58 87 113 94 78 86 117 115 125 153 161 128 123 134 161 196 219 208 197 249
3 62 60 96 132 196 208 204 167 164 173 193 169 153 168 168 136 140 124 94 115 119 92 104 91 108 123 96 105 126 148 181 181 146 119 131 147 144 163 159 136 157 174
80 116 142 166 185 180 212 190 143 180 181 185 173 162 168 158 148 167 140 124 139 133 156 138 125 112 120 125 112 142 167 158 173 174 137 143 141 121 124 92 116 147 152
133 166 192 224 214 193 230 297 308 267 251 229 206 201 173 180 201 198 177 172 168 150 140 151 176 174 197 172 174 176 206 181 196 179 175 157 129 122 143 137 131 130 117
212 143 188 264 264 251 319 337 334 295 278 202 215 214 226 210 209 203 202 198 191 160 163 157 212 204 224 198 209 206 212 209 253 233 146 137 155 139 120 93 80 80 78
245 184 169 217 296 304 317 305 367 354 239 275 290 299 283 283 284 257 221 224 209 185 211 173 277 266 197 209 224 207 203 202 220 252 241 157 165 113 105 89 65 72 61
284 251 212 270 281 307 291 242 402 397 342 359 355 346 345 353 319 300 276 243 230 217 183 222 265 220 170 181 171 177 199 213 214 218 204 156 163 135 138 80 69 80 79

GFSSE_con_3kmhel_024.txt.gz
Helicity
187 192 180 151 130 122 127 122 96 69 65 79 94 100 83 71 86 79 69 58 52 43 38 38 32 18 4 -2 4 4 35 50 38 32 34 47 58 60 61 59 54 46 66
285 206 194 155 132 137 152 125 109 90 87 94 106 97 73 67 68 68 67 53 48 51 56 49 33 24 28 18 12 15 31 32 20 13 11 24 42 45 51 54 47 48 64
233 236 165 150 157 183 181 154 142 150 117 93 103 79 60 64 50 52 60 57 64 65 66 57 48 43 47 36 11 8 17 14 4 3 2 -45 -27 28 34 43 43 54 71
204 227 188 177 186 187 167 139 119 140 86 121 96 69 67 58 47 59 69 73 74 69 62 56 43 34 37 32 26 20 29 29 24 18 -8 -14 -9 26 33 44 52 52 57
205 241 182 183 187 185 157 141 100 104 107 99 85 54 73 60 54 76 69 66 59 39 32 32 37 31 25 35 47 57 55 38 30 18 1 -4 -3 40 47 42 40 55 63
198 180 164 149 133 147 146 121 92 64 126 90 70 54 45 66 69 73 64 50 40 27 12 27 39 47 45 53 63 58 49 38 23 5 10 5 -1 38 37 40 43 54 60
267 215 87 90 137 132 133 95 50 125 79 59 47 53 55 59 56 57 52 38 22 21 34 31 42 45 36 57 36 30 32 36 8 15 11 11 14 39 34 42 56 62 67
382 316 219 151 164 123 114 58 98 24 71 38 43 64 60 51 51 50 45 36 34 46 56 57 40 58 53 47 44 53 49 30 18 24 32 23 48 56 50 52 60 72 85
369 302 299 380 378 290 123 69 39 63 15 47 37 54 47 36 52 68 58 54 62 69 74 98 86 86 90 85 62 70 43 29 6 -5 13 7 46 58 59 61 64 69 75
240 220 380 330 380 485 164 108 115 40 29 19 43 55 47 93 90 76 92 75 86 65 85 105 119 99 105 98 99 80 59 50 21 18 19 9 46 67 77 76 64 63 70
247 249 475 433 580 469 197 130 67 -18 6 47 79 92 93 60 69 96 91 94 75 81 98 112 135 130 126 122 110 92 78 38 32 33 37 50 66 83 68 59 59 60 62
123 113 18 59 140 190 351 176 -34 11 71 58 62 60 63 75 90 92 96 83 100 141 158 169 163 148 119 90 82 104 65 50 43 40 50 76 84 80 68 55 52 56 63
-29 32 101 80 31 40 -45 -13 -13 32 74 4 -9 -11 37 68 76 84 82 107 146 160 152 153 143 125 129 115 122 115 99 90 77 87 88 97 88 76 72 69 70 71 72
-169 -190 -139 -129 -106 -22 29 29 35 -13 -13 -20 -23 26 37 52 75 98 129 136 154 132 125 124 136 145 161 166 160 154 129 107 113 121 120 130 121 110 79 100 101 70 71
-104 -87 -68 -85 -76 -46 -50 -33 -4 13 -4 16 -22 -7 30 75 104 113 142 156 125 106 108 124 137 150 160 173 179 170 157 147 132 114 108 171 181 148 137 147 133 97 62
-32 -54 -45 -39 -10 -8 -9 -16 -74 -29 8 -28 -28 32 75 97 115 123 126 121 118 103 102 119 130 133 147 161 182 184 172 160 137 125 96 128 220 239 225 228 212 177 132
-38 -45 -14 -0 13 -9 -31 -44 -46 -50 -11 -32 30 74 107 118 124 135 129 112 93 92 117 130 133 128 133 154 171 172 167 152 144 143 137 127 158 246 231 210 229 230 207
1 13 9 -0 -17 -48 -68 -57 -59 -43 11 53 87 119 141 132 126 135 121 97 86 124 126 132 110 111 104 132 140 148 144 159 151 145 153 150 151 152 175 207 212 199 176
7 3 3 -15 -35 -51 -63 -56 -28 -5 42 83 125 151 141 137 131 133 118 122 126 118 106 101 102 89 101 99 121 129 155 166 142 150 176 184 167 157 151 197 220 230 220
-21 -27 -14 -19 -25 -17 -7 -7 42 45 61 102 130 141 149 151 139 146 146 143 119 121 139 118 94 101 85 93 140 172 177 176 162 173 173 152 149 147 131 152 170 178 216
-14 -14 17 29 38 60 73 85 92 96 80 109 142 141 138 147 155 168 158 153 156 154 119 85 63 76 102 87 134 164 156 196 208 179 150 131 113 92 113 89 84 102 132
55 41 43 53 106 120 150 161 142 134 132 162 159 154 144 166 181 182 182 185 173 135 116 90 79 108 120 141 131 152 158 150 201 172 152 140 119 130 127 102 104 116 94
72 94 108 113 150 186 217 291 277 286 255 233 220 213 187 186 195 223 204 176 154 140 133 106 98 85 135 141 212 160 182 174 211 172 154 163 159 135 116 127 150 139 134
74 81 96 150 213 230 278 310 328 325 321 223 238 239 224 213 231 232 227 204 183 158 139 121 95 87 192 201 211 227 202 248 255 237 186 172 182 167 154 142 142 138 142
115 112 155 190 222 280 310 316 322 311 329 309 300 285 267 256 251 264 242 234 221 192 206 214 211 132 175 253 217 280 213 210 257 297 285 251 218 140 132 126 136 127 115
196 189 181 240 235 285 293 302 312 351 368 387 349 316 314 324 315 284 257 251 245 254 248 255 99 267 205 258 275 233 229 286 281 295 313 250 223 177 159 120 113 126 113

GFSSE_con_3kmhel_027.txt.gz
Helicity
168 148 113 118 147 170 193 208 196 171 142 129 124 137 124 97 66 47 34 29 23 11 6 -8 -9 1 8 20 41 47 39 34 29 27 35 51 53 59 63 67 56 62 70
218 145 127 113 125 144 167 171 164 157 131 116 139 120 107 88 59 54 33 30 21 12 1 -5 4 4 3 12 25 36 41 35 26 24 23 45 50 46 50 56 61 54 63
237 174 118 122 134 155 171 159 136 110 104 124 142 99 105 95 70 55 32 22 11 4 6 8 6 5 11 21 32 34 34 29 14 9 6 19 31 42 47 54 55 62 67
232 186 151 166 158 140 133 116 98 85 111 127 131 135 102 105 68 59 26 13 7 7 1 2 9 19 28 27 29 29 26 17 13 -5 6 9 18 33 35 39 48 54 56
231 186 169 187 158 126 116 106 97 107 96 159 114 144 104 77 70 46 14 7 13 18 7 -4 7 15 29 32 29 20 18 13 8 11 19 19 21 33 39 36 36 46 54
189 172 170 169 152 132 127 122 118 133 121 105 119 124 73 78 61 44 26 24 18 8 12 4 2 1 15 25 39 41 31 19 -1 17 15 14 28 33 42 51 54 59 62
199 151 135 172 187 137 152 120 125 122 116 87 165 113 75 74 43 45 33 32 17 7 12 19 19 6 37 45 43 42 26 8 13 17 21 23 33 43 49 56 63 68 71
303 293 208 251 235 153 131 92 111 78 98 119 117 60 77 51 43 58 61 46 35 22 16 39 45 33 43 62 56 37 19 -2 8 22 28 35 36 53 57 55 61 65 76
294 401 416 329 373 256 137 120 94 63 102 103 58 52 101 57 75 71 75 71 58 43 44 60 63 55 74 83 73 54 31 14 12 13 22 32 52 63 52 53 59 74 79
388 431 484 445 420 276 232 64 36 89 79 84 39 84 102 76 78 85 79 82 78 74 78 74 106 117 102 88 72 54 36 28 16 15 16 29 54 59 65 66 68 65 71
224 242 238 339 405 610 392 33 62 83 65 13 81 112 100 74 74 76 71 68 73 107 100 127 129 118 111 100 89 81 59 32 24 21 26 50 46 64 54 65 71 91 97
223 207 324 485 569 556 556 224 123 47 52 18 68 91 106 87 82 62 72 83 118 140 146 142 137 107 75 59 64 78 46 43 46 51 66 83 87 73 67 49 63 84 97
149 174 336 558 689 531 641 439 287 18 -10 15 86 99 83 75 73 77 66 86 102 116 104 102 90 86 93 91 96 89 80 71 70 81 103 100 94 82 91 90 91 78 67
48 87 111 96 128 85 -33 -60 -111 14 30 38 43 23 51 74 77 75 96 101 97 96 99 88 89 103 124 121 116 118 103 79 75 90 113 118 110 100 116 129 121 94 81
-116 -53 12 -33 -47 -27 -24 53 18 20 20 17 25 46 44 51 72 91 96 97 95 79 80 80 95 104 113 124 121 114 109 102 95 95 102 156 157 135 155 149 142 126 104
-120 -32 -22 15 23 20 -9 -25 -30 -40 -21 13 32 20 21 51 87 91 90 83 82 74 71 86 98 113 124 120 129 127 118 107 94 90 99 136 215 230 214 206 197 196 165
14 4 -7 -17 -16 -20 -24 -34 -18 36 28 20 15 21 49 71 74 86 82 79 74 79 107 102 114 124 120 120 129 123 119 114 105 115 110 117 149 252 271 271 262 240 211
37 13 -2 -2 13 -1 -14 -1 15 4 11 6 11 39 55 54 78 80 72 81 88 97 88 90 102 104 105 105 106 111 119 122 123 133 125 118 130 136 181 209 213 214 216
36 11 11 5 -8 -34 -71 -74 -30 -11 2 18 46 63 69 78 77 75 84 100 112 118 122 106 88 81 86 87 90 97 101 107 145 138 137 145 158 152 151 204 230 244 236
21 16 13 6 -4 -20 -70 -35 -14 -17 14 41 56 69 96 97 101 100 121 141 145 147 132 111 114 102 77 71 83 97 122 175 168 130 129 160 157 152 148 161 159 175 213
6 7 5 -10 -27 -41 -42 -42 -34 -12 37 46 61 87 115 120 117 137 160 173 163 146 144 139 128 103 77 48 39 72 136 179 160 146 126 161 172 144 115 120 120 136 156
37 34 29 34 43 45 27 26 42 74 94 102 122 130 137 148 151 162 177 180 168 178 169 144 122 114 94 35 7 65 107 151 164 170 144 160 176 129 120 115 125 137 137
7 13 5 6 32 47 74 112 131 175 145 152 170 169 178 182 199 193 183 184 191 183 167 140 109 92 91 145 99 144 148 181 194 185 133 172 165 131 135 122 132 168 158
54 19 30 53 90 90 125 143 176 179 189 170 173 196 224 212 235 243 225 221 206 180 168 151 109 66 88 110 140 184 206 211 195 195 197 188 149 150 172 173 163 182 168
51 59 60 73 105 133 155 164 174 175 209 202 243 293 267 254 232 250 257 250 237 237 254 268 195 80 78 132 146 165 179 200 212 211 204 214 165 163 163 148 145 150 148
79 77 81 97 105 142 174 212 190 226 271 273 304 345 312 297 285 271 275 278 284 311 303 200 191 115 88 158 180 181 179 187 200 212 223 218 218 185 159 136 125 126 153

GFSSE_con_3kmhel_030.txt.gz
Helicity
123 151 134 121 115 144 172 179 182 182 169 153 123 104 75 60 39 12 6 -4 -14 -13 -13 -11 -5 12 30 35 34 34 30 25 25 30 34 45 49 55 65 100 55 56 65
193 142 139 132 110 137 170 191 184 165 146 135 122 94 80 57 40 15 -1 -11 -24 -25 -14 -10 -2 9 18 17 12 7 10 6 -16 -18 4 18 45 49 48 58 75 55 64
179 122 110 151 147 170 190 188 166 145 138 124 123 103 90 56 45 2 2 -7 -15 -9 -5 0 5 6 10 12 6 7 11 -3 -27 -39 -29 21 35 47 51 53 46 53 59
161 172 118 179 188 186 184 169 151 140 128 106 123 121 87 62 42 9 9 0 -5 -8 0 4 1 8 17 18 19 19 16 -16 -44 -37 14 22 24 31 33 42 55 64 47
156 193 161 179 178 168 165 154 144 128 110 116 112 116 77 67 43 23 6 9 -2 -3 3 4 -3 6 13 19 21 18 5 -33 -53 7 35 34 30 32 44 58 47 59 70
180 192 187 193 183 180 162 135 115 105 116 104 105 90 101 87 27 25 22 19 16 0 1 2 5 13 19 23 18 22 -14 -45 -37 26 28 32 44 40 49 57 61 67 71
189 205 180 195 199 166 130 106 79 105 120 94 103 86 94 79 54 22 29 22 26 27 16 15 18 24 27 25 21 4 -10 -6 11 18 32 41 40 51 60 66 75 82 95
188 188 209 212 177 211 183 141 104 114 112 94 99 71 103 88 66 50 35 40 40 46 41 38 31 30 37 45 36 15 -30 -67 6 15 34 45 39 57 65 69 80 92 101
282 348 465 468 341 257 203 163 117 114 97 68 97 103 117 121 77 74 45 44 47 54 65 63 47 47 49 56 39 21 -5 -36 17 15 31 58 52 62 63 69 79 92 104
348 429 491 367 291 220 304 78 88 120 28 113 108 144 130 120 88 60 54 54 50 68 77 78 68 66 74 52 43 22 -4 -35 19 20 54 51 56 57 64 70 77 89 102
417 527 612 557 491 454 356 301 57 41 56 107 121 92 59 76 57 20 94 67 85 88 99 92 87 77 59 57 40 12 -37 23 24 27 69 49 70 68 61 61 72 78 80
280 327 453 503 422 334 209 148 0 43 31 74 94 81 72 81 77 72 77 94 99 119 99 102 76 31 -8 23 22 5 31 27 33 35 70 48 64 75 77 70 73 72 79
214 220 293 404 414 364 219 83 110 47 102 80 40 65 34 79 59 55 58 52 55 59 56 45 21 27 34 32 40 39 43 33 42 44 70 62 67 74 94 97 87 69 76
204 202 240 342 540 628 787 517 199 161 109 -4 60 15 36 65 55 45 42 48 52 46 54 36 36 50 59 62 61 53 47 47 49 48 90 88 77 76 120 125 101 88 97
149 157 156 266 399 217 131 113 38 -29 -2 35 14 25 22 41 48 53 51 49 50 42 41 42 47 57 69 59 53 51 49 50 49 53 84 120 147 125 127 143 130 116 102
5 -6 22 68 38 -38 -87 -53 56 24 9 25 7 4 30 47 47 54 59 55 44 37 36 43 52 63 57 51 53 50 58 58 62 61 94 119 174 208 212 210 226 204 174
-17 62 26 7 0 -23 0 21 5 5 1 2 17 21 36 31 43 50 45 43 43 49 66 55 52 53 48 52 53 46 42 50 68 92 99 103 115 186 234 249 231 219 213
31 17 14 10 5 -3 -7 -39 -34 -43 -34 -39 33 28 15 33 39 32 36 46 57 62 56 64 58 66 57 50 53 51 44 57 58 64 82 73 94 102 142 174 191 191 205
9 2 11 2 5 4 -15 -35 -49 -57 -59 -6 -7 11 22 26 35 29 41 65 61 75 77 79 82 70 67 68 60 33 18 37 33 69 104 106 126 95 112 176 172 199 201
39 35 26 12 6 -26 -58 -84 -83 -56 -37 -2 -1 9 34 40 44 44 56 72 77 87 88 102 105 102 94 75 49 50 23 57 89 77 122 112 132 125 92 121 130 163 158
15 19 25 16 -6 -35 -51 -50 -35 -33 -13 -10 16 31 56 57 58 69 76 90 89 91 119 124 135 123 120 99 66 30 21 85 93 118 116 121 149 112 121 118 98 130 139
11 13 10 8 3 -14 -34 -38 -31 -15 8 21 42 58 72 82 75 99 112 110 112 141 147 157 145 144 146 99 68 57 54 185 148 98 131 135 160 132 128 110 123 107 90
13 11 1 -4 -12 -18 -16 -7 3 49 65 70 86 106 90 106 112 117 134 162 174 157 163 155 147 162 169 146 82 81 109 121 259 252 148 117 157 126 145 109 85 98 105
28 12 5 6 13 15 13 35 58 68 69 77 90 101 133 131 137 135 148 178 196 196 190 184 197 172 70 95 118 55 101 141 159 167 194 155 121 106 118 120 143 144 128
24 33 21 16 18 40 58 62 66 55 72 108 100 114 142 161 175 166 182 195 207 215 212 211 177 132 80 81 101 152 120 131 135 159 137 176 235 147 159 138 146 119 115
20 30 37 35 35 42 62 68 72 64 86 154 159 183 202 234 254 228 238 237 228 217 217 222 192 153 62 106 95 120 123 144 140 154 146 164 217 180 173 147 136 138 144

GFSSE_con_3kmhel_033.txt.gz
Helicity
101 115 139 146 154 139 128 144 139 128 118 106 93 74 69 45 25 13 1 -5 -8 -8 -4 11 5 10 8 11 13 12 -2 -9 -6 1 26 51 61 72 96 148 80 65 86
183 115 149 154 157 138 146 156 147 124 113 101 95 72 50 35 26 8 -11 -18 -19 -12 -6 4 6 12 16 17 13 -2 -18 -33 -31 -24 -56 21 53 52 54 51 66 52 67
199 175 152 173 164 154 150 162 140 121 105 102 88 62 37 37 27 7 -11 -23 -12 -7 3 5 12 16 13 6 -6 -25 -46 -69 -92 -67 -17 12 30 50 51 55 43 56 67
199 171 180 186 176 160 153 152 139 122 108 99 80 49 36 40 42 33 7 -3 -1 -2 3 6 13 10 7 2 -13 -40 -52 -35 -16 -28 15 24 25 49 48 40 54 63 41
136 114 238 203 187 155 156 150 140 123 113 89 73 48 38 48 65 44 31 11 8 6 10 7 9 3 1 -8 -20 -32 -36 -67 -98 20 51 62 29 39 61 87 58 75 82
223 209 165 260 185 186 178 157 136 120 112 88 71 52 44 57 77 64 39 16 18 16 15 12 10 10 4 -7 -22 -28 -23 -19 -77 31 44 38 32 39 55 69 79 96 111
159 131 161 176 190 190 164 151 144 138 101 88 76 64 65 61 70 71 52 33 29 27 16 14 12 9 2 -6 -22 -41 -24 29 4 40 68 42 37 54 59 69 80 90 99
169 169 229 193 220 191 169 167 153 130 112 87 76 90 75 83 82 78 62 53 45 37 29 18 10 14 13 -8 -25 -17 -22 9 11 22 80 47 41 55 61 66 74 84 95
277 364 367 242 199 286 248 175 156 145 103 89 79 108 103 102 92 48 71 67 65 58 37 30 24 30 15 -2 -1 -19 -31 -36 -2 23 75 72 47 55 57 57 67 73 78
308 351 430 413 318 260 202 227 208 200 130 119 77 108 107 84 92 59 71 74 71 60 50 38 37 31 17 20 -10 -52 -59 -60 3 44 75 51 45 50 50 50 56 59 66
324 401 459 471 438 269 229 122 145 135 118 126 90 69 55 74 43 48 86 68 76 61 65 53 38 22 28 0 -40 -48 2 -6 8 47 76 43 53 66 63 55 57 60 71
336 406 407 467 547 699 518 469 265 171 181 1 40 73 34 51 27 60 80 81 72 78 70 45 6 -1 -3 8 9 -10 7 4 23 79 74 70 55 77 87 80 79 72 78
322 486 648 777 1014 498 880 442 463 86 -42 36 46 61 54 93 77 59 40 42 35 43 31 10 -4 -13 21 20 28 31 18 19 26 91 75 77 78 89 106 105 90 84 90
216 342 385 321 374 307 314 135 20 -24 5 70 49 -27 61 55 22 16 -31 37 29 12 30 13 26 26 26 40 39 27 17 17 18 92 98 105 89 89 127 126 110 108 103
305 305 263 332 281 252 241 193 140 264 191 10 -47 -2 10 -2 11 -15 27 36 31 53 24 21 26 25 29 28 24 21 29 34 33 38 131 135 137 136 132 147 145 133 124
171 258 274 249 299 418 330 399 357 205 26 -64 -13 23 33 19 2 16 34 41 56 30 28 22 35 28 29 39 29 22 18 27 43 20 118 133 170 208 213 227 214 183 169
48 99 92 77 64 112 248 65 55 61 41 20 -16 -44 -2 5 -6 31 43 60 46 50 50 70 44 50 40 35 47 32 35 23 50 53 47 127 121 189 215 240 226 215 215
-5 -18 -42 -4 -25 -37 -79 21 -31 -8 -9 -35 -23 -15 -1 -17 4 41 46 43 55 54 45 51 51 50 51 50 62 66 64 51 53 50 69 48 106 184 189 201 208 189 204
29 -17 -6 -6 -5 -29 -6 -30 -59 -59 -65 -37 -29 -36 -14 -8 38 40 38 53 57 48 59 58 65 67 87 75 86 99 94 65 52 70 123 91 129 136 203 205 167 159 171
32 16 8 2 4 -9 -29 -29 -41 -42 -37 -21 -8 -39 -8 5 39 35 54 65 43 61 73 68 91 91 97 109 111 127 106 75 12 55 103 74 137 127 92 138 129 133 142
50 46 26 13 5 -4 -20 -25 -30 -33 -38 -37 -25 -18 43 23 43 46 60 66 58 78 85 124 120 116 118 122 101 30 73 148 108 69 114 106 144 128 148 122 104 133 163
37 31 26 25 7 -6 -10 -15 -33 -28 -18 11 -6 4 49 54 67 65 73 81 76 109 167 144 127 121 126 127 79 95 99 150 175 136 123 132 128 136 114 131 132 133 125
25 46 30 26 29 13 -13 -9 -18 -24 -33 11 25 42 58 58 75 84 83 98 111 132 163 154 141 136 150 129 112 125 109 125 209 214 235 172 152 143 102 137 131 115 125
25 25 13 14 14 20 -1 -4 17 25 43 45 55 72 97 87 90 93 112 110 150 145 170 167 161 163 185 182 162 105 57 116 133 159 212 225 175 137 94 116 147 155 133
54 43 36 17 20 16 45 8 45 38 49 47 76 89 84 118 107 144 153 151 180 175 186 196 204 194 193 195 204 135 140 95 89 117 150 153 194 118 130 200 177 185 141
48 56 48 32 32 31 53 69 44 99 52 70 180 118 89 193 179 185 193 235 247 191 245 160 222 198 211 158 151 115 139 146 128 144 144 137 159 180 204 236 234 152 150

GFSSE_con_3kmhel_036.txt.gz
Helicity
128 156 153 170 182 162 148 129 106 86 71 66 69 61 60 63 72 61 52 33 20 30 34 36 35 33 32 19 9 -3 -19 -32 -21 19 58 72 72 79 88 90 69 76 103
58 128 182 178 160 149 141 124 106 83 74 72 77 72 65 56 61 58 42 21 17 26 25 21 21 15 13 -9 -23 -32 -40 -64 -85 -57 -5 49 53 56 52 47 58 62 93
21 118 180 194 197 161 137 111 92 82 82 81 83 76 66 50 54 48 24 17 18 14 16 14 10 8 0 -16 -32 -29 -25 -35 -76 -111 -40 -19 18 36 39 46 32 57 71
134 91 166 235 217 178 141 106 89 84 85 91 87 79 68 45 45 34 22 17 15 6 14 12 11 6 -7 -21 -20 -11 -11 -1 54 101 59 15 20 55 45 53 67 63 68
167 119 139 244 223 186 146 113 95 93 97 100 89 93 83 55 46 39 24 15 10 3 8 10 6 -7 -23 -27 -24 -13 -4 -8 26 61 97 39 7 41 66 69 72 80 85
146 137 176 196 216 193 150 120 108 105 106 105 101 102 86 62 57 47 26 24 8 6 9 6 -1 -12 -25 -28 -32 6 59 19 50 36 27 34 19 46 58 68 71 83 98
8 166 200 188 231 264 146 131 119 119 122 113 107 95 89 73 76 63 36 25 19 13 6 3 -2 -12 -15 -3 0 33 94 80 71 51 24 10 17 49 57 63 68 77 83
440 180 229 187 216 200 142 136 150 160 140 138 124 92 90 85 86 64 51 40 25 17 6 -1 -5 -7 -5 -4 0 9 73 127 60 42 41 2 38 54 57 65 69 73 79
119 272 250 254 208 178 175 160 162 166 177 153 144 95 86 82 86 74 56 43 39 25 19 12 1 1 -4 -14 -7 28 58 57 36 63 60 6 44 43 45 53 61 70 75
134 192 254 209 170 237 196 198 212 199 162 170 153 94 95 97 95 87 57 42 38 34 25 15 13 6 -11 -30 -38 -18 -1 -12 72 122 66 18 49 53 54 59 62 61 62
365 484 383 389 198 186 128 170 185 195 183 195 100 45 70 69 66 48 38 44 46 34 27 13 7 -3 -28 -54 -39 -20 -11 20 114 71 68 38 63 66 69 69 74 73 75
339 337 405 389 309 401 260 333 199 78 151 135 77 55 118 43 32 53 58 67 52 30 11 2 1 1 0 -46 -19 -15 12 18 53 53 64 58 63 89 94 96 90 82 82
372 419 390 417 450 521 580 566 435 198 208 178 103 145 36 36 44 69 61 46 37 11 -9 -12 -12 6 -4 55 23 23 0 6 76 68 59 72 61 94 106 103 99 102 94
343 506 474 607 726 634 861 537 719 591 417 111 161 0 35 5 24 34 28 27 -12 -30 11 -20 11 17 25 24 4 7 7 17 45 56 74 111 95 103 129 124 123 120 109
252 224 381 537 652 743 576 332 345 343 393 60 38 -10 -7 -22 -15 21 -9 -11 -27 -35 13 37 25 6 14 27 10 12 11 15 83 101 90 132 155 146 141 152 157 146 125
275 385 355 515 482 467 269 192 170 21 -69 -34 3 -42 -63 -36 0 24 21 8 1 50 25 28 17 19 13 36 32 20 26 40 35 136 106 134 187 227 210 213 205 202 177
127 148 222 271 287 160 183 101 43 20 189 34 -147 -131 -4 27 18 13 46 7 68 10 55 82 85 62 64 78 69 43 62 46 65 78 208 165 188 225 246 249 263 246 228
106 69 34 42 89 132 188 176 29 -116 -108 -36 -52 -47 -38 -36 -25 0 -35 48 55 117 116 76 65 47 60 58 67 65 101 109 120 106 109 161 171 194 202 206 197 202 195
16 32 4 20 -16 -58 -10 -33 -77 -65 -53 -29 -34 -32 -42 -23 2 -23 -44 73 142 113 65 79 51 78 105 92 108 118 121 99 139 94 180 106 151 212 211 182 159 139 150
-22 -43 -34 -70 -69 -91 -27 -71 -79 -118 -67 -54 -33 -19 -21 -26 3 -2 -4 167 137 82 90 103 118 140 140 92 66 159 134 107 95 135 163 108 126 156 174 178 161 136 140
-24 -24 -29 -75 -102 -82 -41 -28 -72 -71 -62 -45 -64 33 17 -24 66 65 11 186 123 80 111 113 198 205 133 175 162 115 139 171 130 140 168 157 139 192 128 177 158 195 172
64 11 15 13 -2 -17 -33 -62 -58 -33 -48 -41 -8 -8 76 -24 144 100 50 184 133 87 138 214 225 189 146 185 167 163 135 181 183 124 155 173 157 213 181 140 145 175 188
126 56 31 78 71 46 23 -16 -54 -5 -20 -11 70 34 1 54 126 128 96 164 166 102 204 265 232 188 178 234 179 207 225 226 157 189 158 193 208 207 173 99 202 210 170
139 95 58 70 70 39 3 -22 22 50 25 3 134 105 90 93 104 128 131 135 163 149 205 251 230 188 210 255 213 188 181 191 194 166 235 173 218 247 219 168 154 210 234
120 144 64 59 91 80 46 -22 33 82 40 34 63 161 144 175 144 132 125 202 202 230 271 302 230 185 245 299 310 315 250 117 115 177 196 191 234 223 183 177 207 240 255
98 85 105 56 80 59 112 67 5 104 77 45 138 172 250 170 148 220 226 308 406 372 350 353 361 393 446 405 472 314 252 138 167 229 238 204 200 200 193 224 316 353 290

GFSSE_con_3kmhel_039.txt.gz
Helicity
138 179 129 331 142 242 199 192 154 108 75 69 85 96 101 110 116 119 101 93 79 64 62 56 48 48 44 44 34 13 9 29 45 58 66 59 61 61 66 71 83 88 97
301 64 126 170 157 174 190 181 125 89 68 71 85 100 104 100 100 97 88 78 65 52 51 42 31 24 22 31 16 -17 -27 -1 29 23 30 52 53 45 51 57 63 64 86
242 24 81 151 128 161 170 132 102 83 69 85 104 119 111 94 86 83 78 63 53 43 38 30 25 23 23 29 22 17 -7 -34 10 14 21 1 4 44 46 41 52 72 87
108 -4 52 119 122 147 147 124 108 84 89 100 116 118 102 84 83 69 65 51 38 32 27 18 16 14 29 35 41 56 56 68 133 30 7 20 38 51 55 63 64 70 73
93 8 92 217 126 135 153 131 106 92 105 119 123 112 94 86 68 63 44 29 21 15 18 16 17 23 33 58 93 106 83 81 84 58 26 3 3 36 53 66 71 80 81
69 62 158 192 156 147 169 137 110 114 132 140 140 115 84 60 57 44 29 22 19 12 15 21 18 19 25 49 93 122 79 71 35 21 21 15 9 46 53 63 70 78 80
264 227 111 181 156 156 174 126 112 124 147 158 146 128 93 55 43 32 24 20 14 5 9 13 27 24 20 47 124 177 64 15 -4 -4 4 5 16 51 61 65 68 74 75
153 115 191 243 206 183 168 161 116 150 183 186 169 144 110 65 49 42 33 26 11 0 -1 10 23 32 33 58 148 143 86 31 10 -4 -9 -5 37 50 54 61 64 70 80
172 236 176 255 193 189 196 182 136 164 198 205 177 158 128 101 71 59 35 24 7 2 5 15 18 14 38 78 124 182 141 43 9 -11 -2 -14 38 46 52 62 70 74 79
223 140 222 282 311 241 169 224 179 174 178 174 183 167 117 111 80 57 42 21 17 10 8 3 -5 -3 11 53 85 135 129 107 34 -1 -11 0 39 43 45 57 60 68 73
74 240 206 139 282 200 171 154 191 154 155 142 141 146 116 92 67 33 31 24 13 4 -10 -13 -12 -17 0 36 39 113 60 38 32 -2 -3 31 44 56 71 76 75 78 75
199 242 221 297 205 171 160 169 148 218 205 122 156 166 115 108 37 46 38 34 22 -2 -12 -4 3 8 31 35 24 88 34 4 8 17 30 48 60 75 79 78 72 72 68
253 287 282 331 456 426 445 379 361 197 114 115 204 102 73 89 89 46 45 22 22 1 3 4 11 26 39 -3 41 54 47 25 31 31 54 63 72 88 102 91 99 101 92
333 323 327 306 318 373 342 386 355 413 251 243 239 88 57 44 15 27 8 16 16 0 -18 3 4 0 2 13 23 50 37 15 35 42 46 89 87 124 133 121 127 122 97
403 387 386 354 391 465 614 379 626 421 249 280 140 69 32 18 -21 -28 5 20 9 -7 -12 12 19 17 13 27 27 31 52 28 55 49 46 101 99 134 140 138 144 145 121
205 333 473 458 583 559 646 622 591 309 299 486 82 95 34 -18 -71 -1 6 5 -15 -26 4 23 24 12 31 43 46 48 47 48 37 70 97 125 163 160 158 157 175 152 130
227 305 386 475 549 605 455 433 278 264 61 205 83 93 -33 -68 33 -53 29 -47 -31 20 44 42 40 52 55 51 52 53 55 73 84 93 134 142 156 206 198 206 218 221 212
128 154 218 307 372 299 256 168 195 118 38 -9 -2 120 -25 -35 -17 8 -20 -13 66 58 95 102 93 91 85 71 58 62 73 75 87 129 149 148 157 158 183 190 182 175 188
73 93 81 91 77 100 85 70 8 88 -21 -3 -74 -9 -31 -43 -33 -11 -30 22 86 124 128 114 97 103 104 102 89 95 119 114 88 89 140 124 162 208 184 173 160 150 143
31 28 52 37 7 42 71 10 -23 -9 -83 -147 -76 -42 -45 -46 -61 -22 -17 33 141 143 118 112 107 115 128 135 123 148 143 147 124 137 123 153 162 220 191 178 167 138 140
0 1 -36 -70 -70 -32 -13 -52 -103 -169 -162 -139 -98 -54 -29 -23 -12 -2 37 101 176 175 123 130 151 161 187 180 217 196 135 137 187 175 162 164 176 200 181 159 159 159 172
1 -16 -48 -92 -99 -73 -104 -165 -208 -194 -211 -133 -101 -72 -37 -13 -5 11 54 147 161 178 155 163 216 237 201 204 238 228 234 248 209 175 186 171 194 219 239 183 188 181 163
31 4 13 -17 -56 -67 -75 -109 -122 -131 -114 -88 -88 -67 -21 -11 23 -6 68 163 142 152 167 191 274 286 239 224 257 257 314 335 282 196 136 144 196 249 245 223 189 219 200
70 30 11 34 -5 -20 -13 -27 -48 -55 -53 -37 -21 4 48 21 20 48 92 189 198 171 197 218 303 333 300 298 301 286 247 300 416 419 206 142 189 237 227 225 240 215 220
103 95 44 54 71 54 29 15 -18 -12 -14 46 67 83 78 95 85 171 126 188 234 237 293 407 371 403 414 329 320 342 362 360 448 444 224 158 185 228 223 253 276 285 273
144 108 86 83 64 58 56 40 15 24 30 73 118 129 138 149 184 221 190 236 249 402 449 508 589 382 523 437 451 462 589 489 423 328 183 158 202 203 224 246 268 270 279

GFSSE_con_3kmhel_042.txt.gz
Helicity
150 170 184 226 146 55 257 235 178 171 171 154 146 164 173 163 148 148 148 136 113 87 79 80 83 89 96 94 92 98 97 87 79 57 53 70 73 68 75 79 88 76 85
52 143 276 139 167 173 274 273 149 140 138 130 139 163 167 153 154 165 145 113 92 79 74 77 87 90 83 64 41 33 51 45 51 59 59 62 60 65 72 76 85 71 97
183 177 304 82 102 115 184 181 129 124 128 139 162 178 170 154 153 140 117 100 87 71 64 69 70 63 50 24 -13 -3 58 27 40 32 29 11 38 47 63 62 66 86 90
245 268 170 107 58 160 155 143 121 111 103 108 132 140 138 129 127 112 92 76 67 62 59 62 68 64 65 43 16 -2 58 45 49 54 37 34 35 63 62 71 82 82 73
60 121 254 275 97 149 154 141 98 95 99 112 117 117 128 114 108 97 78 61 47 49 53 62 77 103 87 36 23 72 66 48 33 31 23 6 11 39 67 82 86 83 84
-68 93 110 214 295 183 263 187 102 89 98 113 115 116 112 97 93 80 62 48 44 45 59 78 105 135 121 75 70 53 29 13 24 22 21 19 5 45 55 67 70 64 75
-4 53 110 222 158 269 240 55 111 105 126 129 126 122 116 100 92 64 54 44 42 57 73 81 114 133 116 78 69 38 28 -1 -6 15 11 -13 -2 42 51 60 63 65 69
173 202 181 281 201 131 184 135 152 153 156 134 125 126 124 97 77 69 51 36 32 44 66 76 83 118 98 90 61 35 -1 -6 -31 -17 -11 -11 34 49 59 66 69 76 78
151 178 198 157 273 270 114 135 178 173 180 169 147 145 116 114 88 66 38 27 28 30 50 70 73 123 129 65 48 33 11 -11 -45 -44 -9 -20 35 45 50 57 64 68 76
123 131 137 233 586 555 227 143 287 221 196 195 202 177 140 116 78 58 34 11 16 13 34 58 92 131 170 98 49 52 32 1 -24 -30 -23 -26 21 31 43 53 59 69 73
202 146 142 287 269 288 101 257 290 266 204 201 178 179 171 101 71 59 28 8 -4 14 28 62 93 114 133 80 30 54 17 -31 -35 -40 -31 5 28 43 52 64 67 63 58
197 209 22 154 163 199 180 200 223 164 168 159 145 138 140 94 44 42 16 -8 8 11 22 48 66 77 84 53 24 42 9 -4 -16 -30 -19 29 41 59 77 62 61 51 48
195 197 168 160 130 107 70 164 132 151 189 151 168 119 89 63 41 44 11 8 28 15 16 22 38 55 30 32 26 34 18 5 -15 -10 20 54 54 76 81 64 71 75 63
217 330 240 189 216 138 117 177 274 195 281 145 154 107 126 61 48 34 18 9 14 17 17 24 33 29 39 50 37 30 14 7 3 13 19 51 64 91 99 91 83 84 78
229 246 243 220 222 147 148 280 358 331 290 95 97 121 79 115 59 24 25 3 13 23 23 22 14 20 33 38 54 39 24 29 31 23 9 55 85 105 105 107 106 98 76
267 249 275 235 195 162 237 372 389 305 201 146 135 96 86 100 18 24 13 -16 8 36 11 11 6 25 27 40 55 54 38 42 43 36 23 50 106 113 118 138 143 135 102
279 353 281 282 189 178 262 535 329 385 367 352 206 151 203 36 22 24 -5 21 0 16 -4 19 46 50 45 40 56 80 82 67 52 42 56 81 99 110 146 158 156 149 139
170 182 376 277 171 274 368 441 284 404 370 255 214 215 84 37 37 25 32 22 -14 -8 12 43 65 52 54 53 68 88 98 101 79 70 76 97 122 131 169 199 190 172 156
144 122 238 329 335 351 238 192 110 191 252 253 105 177 141 108 76 22 53 -26 -15 36 66 96 92 115 80 67 77 98 117 114 107 113 120 120 126 143 155 158 171 163 146
108 97 97 126 155 131 125 18 24 58 56 -91 -78 -44 38 -5 -51 -47 -29 21 104 122 131 135 132 107 116 104 113 132 114 98 154 161 153 154 149 154 162 156 170 155 140
64 77 104 153 103 96 7 -17 -73 -84 -106 -143 -139 -158 -70 -15 -61 -36 38 88 124 160 147 130 150 145 146 179 226 193 174 161 162 168 192 201 205 170 195 188 173 171 160
99 36 28 35 55 39 -3 -61 -81 -86 -145 -123 -168 -211 -95 -45 -33 -22 51 43 102 116 157 182 201 212 203 236 263 260 253 255 230 198 202 250 244 245 256 195 202 207 195
70 51 15 -1 11 10 -28 -80 -63 -97 -156 -185 -249 -256 -180 -77 -43 -26 -1 30 99 139 179 206 236 277 296 249 259 265 337 292 295 255 244 231 298 368 311 238 235 234 210
56 21 2 -26 -36 -16 -56 -107 -142 -145 -154 -200 -203 -178 -137 -66 -28 6 41 66 105 148 165 206 238 275 318 409 297 207 379 388 313 240 288 292 302 326 253 269 297 284 270
81 63 12 -27 -56 -61 -61 -84 -123 -154 -187 -190 -198 -147 -107 -82 -15 50 72 116 119 143 161 225 278 353 366 449 408 305 347 342 372 395 340 268 286 214 188 232 273 309 336
91 49 42 35 -30 -63 -36 -53 -48 -37 -47 -101 -124 -70 -54 -54 -37 34 85 138 163 189 218 272 316 393 430 426 397 398 371 383 480 392 379 269 216 127 114 203 257 251 277

GFSSE_con_3kmhel_045.txt.gz
Helicity
106 165 167 211 175 153 211 71 55 133 195 244 262 268 242 205 165 153 137 147 147 140 131 120 105 98 91 90 81 78 72 58 55 57 66 62 66 60 80 89 93 84 101
160 170 171 260 320 295 277 171 321 201 172 207 223 214 213 196 163 132 141 151 145 133 119 110 95 97 94 84 72 59 63 63 67 49 55 67 62 64 78 88 83 81 106
131 165 206 243 349 392 281 128 173 194 183 166 161 163 161 161 140 139 147 148 141 126 121 112 90 76 55 52 64 54 42 44 53 60 40 10 23 43 57 69 77 95 98
106 152 182 230 291 315 307 84 186 286 156 116 121 124 157 142 144 157 153 135 124 122 121 96 70 44 21 28 54 40 42 53 53 47 51 55 38 59 70 81 81 75 81
116 181 175 223 281 409 470 116 147 159 162 99 108 116 151 149 158 163 142 122 115 112 118 94 55 33 39 46 61 59 51 61 66 65 50 27 28 47 67 73 73 77 74
77 134 142 181 257 202 165 46 129 154 154 94 100 112 142 164 164 141 138 126 116 126 126 81 44 39 64 66 40 30 27 41 45 31 23 30 15 51 51 59 57 63 77
60 83 66 189 177 167 122 84 95 220 123 78 94 116 143 157 148 141 131 123 122 136 124 97 102 112 69 41 9 -4 -5 2 -2 5 3 -10 2 43 49 46 48 52 57
101 60 35 107 199 242 268 161 87 137 113 84 98 121 144 130 114 119 123 115 124 141 138 122 104 81 58 27 13 -1 -14 -14 -9 -1 -4 -16 23 34 37 41 41 48 51
149 143 100 121 279 289 134 35 67 188 120 84 103 111 127 125 107 105 112 111 118 147 156 132 90 47 25 26 21 4 -12 -24 -42 -40 -27 -35 23 26 28 35 38 42 47
149 223 323 209 166 283 185 95 11 149 96 113 125 127 121 100 93 87 93 82 104 132 166 148 106 37 9 28 17 -2 -18 -27 -46 -37 -53 -42 12 24 31 37 42 51 59
136 203 236 161 335 392 258 260 -3 125 183 171 167 129 172 140 118 109 87 76 87 106 139 141 115 62 22 20 20 11 -1 -46 -45 -48 -55 -4 28 45 39 44 43 46 47
163 214 145 288 517 689 522 133 67 82 112 137 146 176 182 123 100 41 26 33 50 94 147 123 83 65 23 16 22 23 -15 -43 -44 -51 -52 5 39 52 59 48 32 25 25
153 172 99 -16 91 31 174 217 141 202 161 156 161 185 174 144 90 73 62 50 20 81 107 87 80 64 30 25 30 16 -4 -24 -38 -45 -29 10 41 52 71 69 61 55 44
118 126 141 126 166 122 152 49 -25 55 113 100 171 182 158 146 99 51 30 9 20 48 50 51 71 53 40 29 32 18 -5 -12 -25 -27 -22 20 52 75 82 83 75 74 61
122 105 119 163 135 93 102 51 5 -15 111 221 154 152 166 128 103 33 42 40 23 56 44 37 51 56 50 49 39 30 7 4 -7 -2 -3 10 31 56 71 99 104 88 75
140 168 179 94 84 48 -4 -45 48 79 199 176 191 170 132 105 82 48 65 33 30 64 21 24 32 34 43 54 37 25 23 19 14 25 10 -16 17 34 60 109 130 110 89
228 166 167 160 149 200 -17 76 165 200 163 197 202 154 95 85 64 78 48 40 28 41 43 50 50 53 52 56 42 30 31 36 41 45 36 9 24 51 74 116 136 117 98
88 144 157 133 116 59 58 106 258 390 228 182 198 172 116 68 56 107 65 40 44 47 51 48 50 50 58 42 53 48 57 65 74 72 62 50 58 76 87 121 132 132 116
75 187 145 148 99 145 110 352 319 371 281 182 208 194 139 60 79 72 31 57 63 64 38 70 62 75 68 51 58 81 78 88 99 108 91 77 86 114 125 141 161 173 146
109 81 181 208 108 81 181 309 337 323 273 221 230 127 143 90 159 68 67 -9 -11 28 49 100 91 90 89 98 93 100 111 122 131 125 103 110 117 130 152 179 171 150 138
128 159 139 145 161 157 130 167 225 111 67 109 96 46 38 151 122 66 1 -32 19 9 68 90 125 136 129 144 157 151 140 144 141 150 149 140 144 157 183 195 201 170 134
139 126 143 155 149 42 -34 24 31 -64 -66 6 27 66 -60 -6 37 2 -25 27 57 103 116 156 168 182 142 161 188 198 183 172 186 195 215 195 161 205 213 187 203 193 144
124 121 107 99 89 72 39 -25 -72 -162 -131 -144 -118 -163 -116 -10 3 5 -26 -62 60 115 130 164 198 214 221 184 210 246 236 150 157 187 245 274 255 240 212 219 217 198 174
117 112 101 92 49 43 4 -33 -82 -82 -107 -122 -109 -137 -153 -100 -95 -15 -13 -47 114 130 135 164 204 239 266 273 256 237 294 196 185 217 176 233 248 217 232 233 242 208 201
109 120 75 69 30 24 -10 -65 -89 -108 -136 -149 -206 -253 -276 -267 -235 -118 -59 24 118 153 151 178 208 260 272 281 353 324 325 292 281 306 216 248 254 242 216 221 217 222 247
71 85 92 74 35 10 24 11 -16 -41 -76 -94 -141 -185 -243 -272 -228 -129 -71 38 98 151 165 186 238 255 277 283 329 355 341 323 327 376 305 243 257 254 226 220 216 218 257

GFSSE_con_3kmhel_051.txt.gz
Helicity
88 149 127 110 233 251 304 168 236 303 298 252 198 159 163 175 174 170 154 123 109 111 93 79 72 62 64 66 68 79 94 103 100 90 84 83 89 97 111 102 108 112 128
136 183 213 218 261 355 303 253 284 250 276 302 187 212 211 168 200 195 181 164 150 122 102 77 72 73 66 73 75 98 107 117 109 94 91 97 86 89 106 114 114 109 118
144 144 181 235 240 243 254 224 235 219 265 290 194 236 189 210 220 223 183 160 145 118 97 81 79 75 68 70 77 84 87 88 90 74 42 33 50 65 89 111 111 108 106
109 110 122 208 234 213 246 242 180 223 249 246 197 201 206 222 237 204 163 131 119 98 96 89 80 70 73 79 78 73 61 65 74 50 51 50 53 73 93 98 98 95 93
124 100 140 219 232 231 245 201 231 270 276 201 212 220 213 211 201 179 139 119 91 81 96 89 82 73 66 78 81 88 77 78 58 49 49 55 44 52 70 77 83 84 88
174 136 180 188 273 283 204 217 248 254 224 191 176 201 184 180 189 151 124 99 81 71 82 89 86 78 77 84 84 91 104 113 37 31 39 28 42 42 56 59 69 69 75
153 137 164 164 151 238 237 227 229 239 216 159 171 158 186 178 163 127 118 90 81 90 72 76 80 71 81 64 70 77 93 46 22 16 10 17 18 31 35 42 42 37 32
125 166 180 188 215 247 215 234 213 238 248 164 208 177 184 167 152 134 120 81 69 76 83 78 60 53 51 36 47 50 42 16 4 7 2 -2 1 8 13 15 23 29 32
89 152 226 224 256 263 189 191 190 175 217 161 201 191 185 159 161 143 111 64 61 83 73 63 45 29 18 14 13 8 14 6 3 -9 -12 -20 3 7 10 14 22 27 25
74 78 179 215 154 200 172 154 149 206 268 134 173 240 218 204 174 134 97 82 94 76 64 56 33 10 8 -2 -3 -6 -1 -12 -3 -6 -16 -15 -1 4 7 14 23 27 28
91 68 82 103 233 239 238 145 89 133 144 80 195 273 237 151 115 106 78 74 70 62 49 41 24 9 1 -4 3 7 -16 -7 -9 -7 -8 -3 1 13 16 21 24 26 32
48 101 108 158 223 247 231 103 161 251 218 67 208 246 173 160 133 91 71 65 58 45 43 30 38 25 3 2 8 -3 -12 -17 -15 -18 -8 2 12 23 30 32 34 34 35
-16 99 165 133 216 274 253 286 327 438 332 114 159 193 184 177 137 120 95 72 46 45 26 26 41 2 6 2 -1 -4 -26 -25 -28 -27 -8 -11 11 23 24 23 15 15 21
74 105 131 129 214 274 331 443 575 360 259 91 178 182 229 204 108 107 88 50 43 16 19 -3 -3 28 20 14 4 -0 -12 -12 -30 -33 -11 -5 11 18 17 16 14 7 12
60 84 90 126 203 326 476 448 493 307 223 130 173 154 186 154 109 72 57 56 37 25 -4 23 28 38 33 21 14 15 -7 -18 -20 -23 -26 -7 22 18 26 19 16 30 8
85 82 89 95 150 271 358 316 288 205 217 257 162 137 161 148 116 69 55 40 25 18 -4 16 24 34 29 24 12 10 8 -13 -30 -28 -24 -8 8 5 32 40 46 41 35
107 116 71 108 95 229 294 268 347 291 223 299 176 162 87 130 129 80 33 36 34 7 16 30 39 54 49 32 32 25 22 8 -6 -29 -23 -19 -6 6 20 70 68 55 60
133 131 111 114 67 82 67 105 218 223 208 238 138 68 67 133 78 81 46 37 41 26 11 55 56 73 61 47 44 35 32 31 -7 9 -2 -7 -2 28 46 59 85 73 71
113 102 151 148 141 101 121 84 122 175 175 123 83 -5 14 68 56 60 53 55 57 42 12 72 54 76 66 48 47 45 43 22 40 30 15 17 34 44 47 72 79 85 88
93 16 148 187 115 176 123 43 110 157 85 34 -23 -49 -20 50 35 54 64 72 79 61 45 67 63 69 62 64 59 54 40 45 35 43 53 66 60 62 66 74 83 78 87
73 71 100 132 216 258 164 134 69 92 101 -25 -94 -99 -36 -6 7 32 83 74 71 48 58 57 88 67 72 69 69 53 40 25 27 49 75 81 76 79 79 103 96 75 112
46 78 93 74 154 223 147 146 1 91 36 -41 65 -24 -15 9 46 40 82 72 69 86 62 72 62 93 80 74 64 66 39 33 51 68 84 95 91 97 90 108 112 111 105
46 57 69 80 52 68 144 218 129 173 200 134 157 87 31 81 46 58 61 81 93 76 54 64 58 74 84 95 96 77 44 43 56 70 46 72 99 93 91 107 116 141 136
66 39 55 76 141 79 116 129 180 154 212 172 181 219 201 150 138 102 64 73 102 90 46 69 68 66 91 92 119 110 122 143 79 52 83 83 81 88 109 132 129 148 153
66 70 52 58 87 123 133 65 60 79 118 215 203 109 90 -32 -43 -74 133 116 95 81 38 45 93 94 103 107 144 175 166 189 179 189 136 148 157 124 122 133 167 161 134
55 66 43 43 48 79 115 127 75 161 150 177 144 105 45 -27 31 20 99 100 95 72 33 35 49 87 99 109 131 167 197 204 219 246 213 141 205 150 166 158 176 157 159

GFSSE_con_3kmhel_054.txt.gz
Helicity
74 86 71 70 114 193 145 122 118 117 193 195 202 170 97 95 67 72 105 64 67 88 96 92 90 94 106 106 103 94 99 111 109 113 106 103 116 127 128 111 115 146 159
99 93 99 83 64 54 54 209 197 180 214 214 204 125 144 118 65 75 131 106 119 115 103 87 91 87 86 87 106 107 110 114 103 111 108 114 114 115 143 160 141 112 119
97 128 97 92 95 135 178 187 272 222 232 208 219 189 173 174 141 153 183 162 139 104 86 96 79 80 73 82 104 114 109 97 69 48 29 68 74 89 103 111 106 104 97
87 152 155 111 84 145 223 191 236 231 206 236 235 215 163 173 182 176 190 187 146 106 101 84 78 67 65 87 98 105 103 78 11 -39 42 51 54 69 77 81 81 76 79
65 123 168 143 121 134 195 187 206 184 222 244 250 213 183 157 165 183 190 162 121 98 88 87 71 66 75 83 100 100 79 42 15 59 38 28 39 49 60 64 75 101 91
65 79 124 133 113 159 202 191 214 218 269 257 238 197 157 159 181 167 141 90 92 87 95 78 73 77 86 105 89 75 37 -7 4 39 39 41 34 46 65 81 68 67 71
84 49 72 113 121 90 75 182 210 262 305 266 223 200 148 158 174 140 88 79 80 97 92 73 74 74 86 94 73 56 13 -29 11 13 17 24 32 34 39 43 46 49 52
115 70 75 101 122 118 109 108 180 231 216 238 196 183 146 151 157 123 79 83 87 96 93 67 67 75 72 61 60 49 3 -15 -1 32 23 24 13 19 25 25 32 34 34
113 152 93 88 108 132 103 96 191 212 240 237 186 175 180 162 181 147 152 117 113 115 78 61 52 41 41 46 45 18 -28 -24 10 7 8 -1 8 13 16 20 27 29 28
83 135 201 197 157 110 129 154 106 223 240 215 194 175 202 194 201 173 153 94 109 90 72 44 36 43 43 28 40 11 -5 -26 14 5 10 17 5 12 17 21 22 26 22
56 100 185 363 214 177 221 195 74 124 169 178 233 148 215 151 103 95 65 84 88 75 55 34 49 51 43 27 21 -30 -50 9 5 13 14 -1 7 12 12 17 20 21 22
54 16 98 169 41 122 240 308 296 182 200 298 331 129 138 141 109 80 84 87 82 76 49 54 43 35 -2 18 -11 -23 -13 5 8 23 21 -2 13 18 17 19 20 21 24
76 15 46 135 160 169 233 294 308 108 258 338 241 164 131 141 122 81 81 53 60 41 33 30 24 -8 14 11 -8 -8 4 2 8 21 27 13 24 26 19 14 18 17 22
6 20 105 140 189 165 219 160 151 208 254 277 141 61 91 145 114 84 89 46 45 -1 30 21 -8 21 4 16 7 13 2 11 -2 17 7 1 -1 5 13 7 13 14 11
27 26 62 155 168 217 328 332 321 409 363 292 115 49 113 152 129 93 68 47 20 12 4 -2 11 23 10 26 20 18 18 25 -1 8 7 1 2 9 13 21 10 8 7
51 47 67 84 125 167 268 356 459 546 386 155 114 77 85 131 97 88 81 46 31 9 2 2 13 23 12 32 36 38 36 19 -1 -4 15 -5 -9 9 24 30 29 27 7
60 88 82 89 127 155 261 378 565 760 406 211 156 64 56 76 127 108 86 54 30 12 3 3 14 31 30 32 43 38 34 29 14 -4 0 14 9 -14 15 42 46 43 45
73 100 82 60 121 144 236 356 589 389 308 237 120 53 65 79 84 103 88 55 35 19 -5 -6 7 39 34 38 48 48 39 29 19 12 0 -4 8 28 18 31 64 65 53
117 111 60 51 109 135 195 198 217 151 179 339 142 142 123 126 64 44 77 50 31 13 -2 0 19 37 47 48 56 52 50 36 21 15 8 -4 18 5 50 127 65 93 97
111 117 38 56 88 106 149 186 188 231 277 345 307 275 161 82 21 56 73 42 21 19 19 15 16 38 48 59 59 55 51 30 25 24 16 40 34 37 35 77 89 90 111
82 103 92 141 117 107 99 74 84 51 105 169 263 171 -4 -59 -63 19 52 39 31 26 31 33 33 45 67 76 89 73 53 48 31 25 36 44 48 63 57 66 58 54 136
84 82 138 153 103 114 97 102 91 98 64 31 0 -32 -20 -54 -48 -6 1 24 25 34 52 55 56 45 57 75 65 51 44 37 38 47 53 47 54 78 80 61 57 57 51
84 125 118 201 156 147 123 59 149 240 169 -39 -115 -197 -123 -116 -77 -18 -4 35 25 39 64 57 47 43 42 57 39 59 58 47 44 50 42 55 54 51 66 58 67 81 92
78 101 117 164 171 128 170 138 162 208 225 116 -100 -156 -121 -117 -87 -42 5 18 23 47 82 62 47 45 17 48 73 47 13 66 69 61 59 70 108 88 59 47 92 98 108
80 91 99 118 139 180 146 128 193 90 41 75 45 -1 39 -61 -69 -27 27 13 -3 19 53 30 34 42 39 8 62 56 54 61 65 84 77 73 118 168 146 67 78 104 124
86 73 80 84 98 176 205 153 183 150 78 53 32 -26 8 71 20 29 -23 29 -24 58 79 65 53 49 61 58 56 63 57 49 48 67 90 98 175 189 130 97 126 114 128